VXP1125 TJSJ-KJQF

Flight info

Callsign VXP1125
Flight time 3h 17m
Altitude 32000
Route ACONY3 PALDE DCT DONQU Y185 RENAH Y355 NUCAR DCT OZENA/N0468F330 Y309 FLRDA DCT EBEAR/N0467F340 Y436 PITRW/N0467F330 DCT FLO KABEE3
Aircraft B738/M-SDE2E3FGHIRWXY/LB1

Departure

Time 2026-04-26 19:44
Airport Luis Munoz Marin International Airport (TJSJ)

Arrival

Time 2026-04-26 23:01
Airport Concord-Padgett Regional Airport (KJQF)
Time Latitude Longitude Altitude Speed Heading
2026-04-26 19:10 18.43631 -66.00096 -18 ft 0 kts 319°
2026-04-26 19:32 18.43628 -66.00093 -28 ft 3 kts 317°
2026-04-26 19:33 18.43615 -66.00077 -43 ft 3 kts 274°
2026-04-26 19:33 18.43620 -66.00064 -32 ft 3 kts 204°
2026-04-26 19:33 18.43641 -66.00055 -39 ft 3 kts 201°
2026-04-26 19:33 18.43659 -66.00045 -45 ft 3 kts 233°
2026-04-26 19:34 18.43664 -66.00038 -47 ft 6 kts 274°
2026-04-26 19:34 18.43653 -66.00049 -50 ft 3 kts 215°
2026-04-26 19:34 18.43632 -66.00057 -31 ft 3 kts 196°
2026-04-26 19:34 18.43611 -66.00063 -35 ft 3 kts 194°
2026-04-26 19:35 18.43589 -66.00070 -43 ft 3 kts 198°
2026-04-26 19:35 18.43568 -66.00080 -28 ft 3 kts 210°
2026-04-26 19:35 18.43561 -66.00092 -28 ft 2 kts 268°
2026-04-26 19:35 18.43561 -66.00112 -35 ft 1 kts 90°
2026-04-26 19:37 18.43561 -66.00108 -37 ft 3 kts 90°
2026-04-26 19:37 18.43562 -66.00054 -27 ft 11 kts 85°
2026-04-26 19:37 18.43618 -66.00006 -38 ft 11 kts
2026-04-26 19:38 18.43694 -65.99998 -41 ft 11 kts
2026-04-26 19:38 18.43773 -66.00017 -38 ft 15 kts 338°
2026-04-26 19:38 18.43898 -66.00073 -34 ft 24 kts 337°
2026-04-26 19:38 18.44060 -66.00145 -27 ft 22 kts 336°
2026-04-26 19:39 18.44173 -66.00204 -35 ft 16 kts 315°
2026-04-26 19:39 18.44162 -66.00309 -32 ft 15 kts 247°
2026-04-26 19:39 18.44128 -66.00409 -28 ft 14 kts 264°
2026-04-26 19:39 18.44140 -66.00511 -30 ft 14 kts 269°
2026-04-26 19:40 18.44113 -66.00604 -39 ft 13 kts 246°
2026-04-26 19:40 18.44078 -66.00691 -34 ft 13 kts 247°
2026-04-26 19:40 18.44042 -66.00778 -34 ft 13 kts 247°
2026-04-26 19:40 18.44004 -66.00874 -46 ft 15 kts 246°
2026-04-26 19:41 18.43960 -66.00982 -39 ft 17 kts 246°
2026-04-26 19:41 18.43905 -66.01117 -50 ft 23 kts 246°
2026-04-26 19:41 18.43843 -66.01272 -51 ft 23 kts 247°
2026-04-26 19:41 18.43802 -66.01371 -48 ft 21 kts 246°
2026-04-26 19:42 18.43761 -66.01510 -53 ft 13 kts 289°
2026-04-26 19:42 18.43826 -66.01562 -46 ft 12 kts 13°
2026-04-26 19:42 18.43862 -66.01519 -45 ft 0 kts 63°
2026-04-26 19:42 18.43863 -66.01518 -45 ft 3 kts 64°
2026-04-26 19:43 18.43973 -66.01245 -44 ft 78 kts 66°
2026-04-26 19:43 18.44279 -66.00490 -34 ft 144 kts 67°
2026-04-26 19:43 18.44672 -65.99314 68 ft 192 kts 73°
2026-04-26 19:43 18.45199 -65.97935 589 ft 213 kts 72°
2026-04-26 19:44 18.45824 -65.96515 1326 ft 217 kts 53°
2026-04-26 19:44 18.47025 -65.95487 1843 ft 232 kts 22°
2026-04-26 19:44 18.48615 -65.95269 2525 ft 237 kts 351°
2026-04-26 19:44 18.50173 -65.95789 3290 ft 233 kts 334°
2026-04-26 19:45 18.51642 -65.96544 3948 ft 240 kts 331°
2026-04-26 19:45 18.53158 -65.97475 4226 ft 266 kts 319°
2026-04-26 19:45 18.54441 -65.98923 4707 ft 275 kts 304°
2026-04-26 19:45 18.55608 -66.00540 5374 ft 278 kts 304°
2026-04-26 19:46 18.56787 -66.02166 6047 ft 281 kts 304°
2026-04-26 19:46 18.57977 -66.03772 6693 ft 282 kts 306°
2026-04-26 19:46 18.59201 -66.05389 7362 ft 283 kts 306°
2026-04-26 19:46 18.60449 -66.07010 7999 ft 285 kts 307°
2026-04-26 19:47 18.61711 -66.08631 8668 ft 287 kts 307°
2026-04-26 19:47 18.62555 -66.09708 9118 ft 289 kts 307°
2026-04-26 19:47 18.64281 -66.11899 10027 ft 291 kts 307°
2026-04-26 19:47 18.65597 -66.13563 10418 ft 303 kts 308°
2026-04-26 19:48 18.66992 -66.15326 10552 ft 323 kts 307°
2026-04-26 19:48 18.68471 -66.17192 10706 ft 341 kts 307°
2026-04-26 19:48 18.70014 -66.19137 10833 ft 358 kts 308°
2026-04-26 19:48 18.71651 -66.21197 10943 ft 375 kts 308°
2026-04-26 19:49 18.73356 -66.23342 11083 ft 389 kts 308°
2026-04-26 19:49 18.75118 -66.25557 11392 ft 396 kts 308°
2026-04-26 19:49 18.76894 -66.27788 11881 ft 397 kts 307°
2026-04-26 19:49 18.78670 -66.30022 12394 ft 399 kts 307°
2026-04-26 19:50 18.80458 -66.32271 12858 ft 401 kts 307°
2026-04-26 19:50 18.82254 -66.34533 13311 ft 403 kts 307°
2026-04-26 19:50 18.84062 -66.36812 13761 ft 406 kts 307°
2026-04-26 19:50 18.85879 -66.39100 14156 ft 408 kts 307°
2026-04-26 19:51 18.87679 -66.41368 14536 ft 410 kts 307°
2026-04-26 19:51 18.89511 -66.43679 14926 ft 411 kts 307°
2026-04-26 19:51 18.91349 -66.45998 15341 ft 412 kts 307°
2026-04-26 19:51 18.93218 -66.48311 15717 ft 415 kts 309°
2026-04-26 19:52 18.95259 -66.50491 16073 ft 419 kts 313°
2026-04-26 19:52 18.97392 -66.52603 16438 ft 422 kts 314°
2026-04-26 19:52 18.99549 -66.54712 16793 ft 424 kts 314°
2026-04-26 19:52 19.01702 -66.56840 17139 ft 425 kts 313°
2026-04-26 19:53 19.03821 -66.58966 17507 ft 426 kts 313°
2026-04-26 19:53 19.05966 -66.61138 17868 ft 428 kts 313°
2026-04-26 19:53 19.08123 -66.63317 18191 ft 430 kts 314°
2026-04-26 19:53 19.10357 -66.65437 18460 ft 433 kts 315°
2026-04-26 19:54 19.12650 -66.67517 18741 ft 435 kts 316°
2026-04-26 19:54 19.14966 -66.69583 19012 ft 437 kts 316°
2026-04-26 19:54 19.17294 -66.71655 19274 ft 439 kts 316°
2026-04-26 19:54 19.19602 -66.73715 19534 ft 440 kts 316°
2026-04-26 19:55 19.21944 -66.75815 19788 ft 442 kts 316°
2026-04-26 19:55 19.24289 -66.77927 20038 ft 444 kts 315°
2026-04-26 19:55 19.26640 -66.80050 20331 ft 445 kts 315°
2026-04-26 19:55 19.28993 -66.82180 20612 ft 445 kts 315°
2026-04-26 19:56 19.31351 -66.84317 20842 ft 447 kts 315°
2026-04-26 19:56 19.33718 -66.86464 21056 ft 450 kts 315°
2026-04-26 19:56 19.36096 -66.88621 21291 ft 451 kts 315°
2026-04-26 19:56 19.38483 -66.90788 21540 ft 452 kts 315°
2026-04-26 19:57 19.40875 -66.92959 21785 ft 454 kts 315°
2026-04-26 19:57 19.43247 -66.95112 22003 ft 455 kts 315°
2026-04-26 19:57 19.45656 -66.97300 22215 ft 457 kts 315°
2026-04-26 19:57 19.48071 -66.99495 22428 ft 458 kts 315°
2026-04-26 19:58 19.50493 -67.01696 22642 ft 460 kts 315°
2026-04-26 19:58 19.52928 -67.03911 22840 ft 461 kts 315°
2026-04-26 19:58 19.55367 -67.06130 23046 ft 463 kts 315°
2026-04-26 19:58 19.57814 -67.08357 23236 ft 464 kts 315°
2026-04-26 19:59 19.60266 -67.10590 23429 ft 466 kts 315°
2026-04-26 19:59 19.62693 -67.12801 23626 ft 467 kts 314°
2026-04-26 19:59 19.65159 -67.15049 23798 ft 467 kts 314°
2026-04-26 19:59 19.67622 -67.17294 23985 ft 468 kts 314°
2026-04-26 20:00 19.70093 -67.19547 24144 ft 469 kts 314°
2026-04-26 20:00 19.72566 -67.21803 24312 ft 470 kts 314°
2026-04-26 20:00 19.75044 -67.24066 24472 ft 470 kts 314°
2026-04-26 20:00 19.77531 -67.26337 24636 ft 471 kts 314°
2026-04-26 20:01 19.80015 -67.28607 24794 ft 472 kts 314°
2026-04-26 20:01 19.82501 -67.30879 24951 ft 473 kts 314°
2026-04-26 20:01 19.84966 -67.33133 25103 ft 473 kts 314°
2026-04-26 20:01 19.87460 -67.35414 25257 ft 474 kts 314°
2026-04-26 20:02 19.89961 -67.37703 25395 ft 475 kts 314°
2026-04-26 20:02 19.92463 -67.39994 25538 ft 475 kts 314°
2026-04-26 20:02 19.94970 -67.42290 25685 ft 476 kts 314°
2026-04-26 20:02 19.96630 -67.43811 25810 ft 476 kts 314°
2026-04-26 20:03 19.99977 -67.46879 26115 ft 474 kts 314°
2026-04-26 20:03 20.02465 -67.49160 26350 ft 472 kts 314°
2026-04-26 20:03 20.04950 -67.51439 26575 ft 471 kts 314°
2026-04-26 20:03 20.07402 -67.53689 26778 ft 471 kts 313°
2026-04-26 20:04 20.09873 -67.55958 27066 ft 468 kts 313°
2026-04-26 20:04 20.12326 -67.58211 27412 ft 465 kts 313°
2026-04-26 20:04 20.14767 -67.60453 27683 ft 463 kts 313°
2026-04-26 20:04 20.17203 -67.62693 27879 ft 463 kts 313°
2026-04-26 20:05 20.19638 -67.64935 28081 ft 463 kts 313°
2026-04-26 20:05 20.22075 -67.67179 28333 ft 461 kts 313°
2026-04-26 20:05 20.24494 -67.69405 28614 ft 460 kts 313°
2026-04-26 20:05 20.26876 -67.71599 28875 ft 458 kts 313°
2026-04-26 20:06 20.29286 -67.73821 29108 ft 457 kts 313°
2026-04-26 20:06 20.31689 -67.76036 29384 ft 456 kts 312°
2026-04-26 20:06 20.34076 -67.78235 29793 ft 451 kts 312°
2026-04-26 20:06 20.36438 -67.80412 30132 ft 448 kts 312°
2026-04-26 20:07 20.38798 -67.82592 30297 ft 449 kts 312°
2026-04-26 20:07 20.41162 -67.84777 30396 ft 451 kts 312°
2026-04-26 20:07 20.43531 -67.86969 30549 ft 451 kts 312°
2026-04-26 20:07 20.45897 -67.89156 30762 ft 450 kts 312°
2026-04-26 20:08 20.48228 -67.91310 30973 ft 449 kts 311°
2026-04-26 20:08 20.50586 -67.93491 31151 ft 449 kts 311°
2026-04-26 20:08 20.52961 -67.95689 31308 ft 449 kts 311°
2026-04-26 20:08 20.55319 -67.97872 31501 ft 449 kts 311°
2026-04-26 20:09 20.57643 -68.00024 31693 ft 448 kts 311°
2026-04-26 20:09 20.59999 -68.02206 31875 ft 448 kts 311°
2026-04-26 20:09 20.64715 -68.06579 31946 ft 450 kts 311°
2026-04-26 20:10 20.69435 -68.10956 31968 ft 447 kts 311°
2026-04-26 20:10 20.73624 -68.15693 31970 ft 433 kts 301°
2026-04-26 20:11 20.77354 -68.20716 31957 ft 430 kts 301°
2026-04-26 20:12 20.82922 -68.28169 31947 ft 429 kts 302°
2026-04-26 20:12 20.86664 -68.33146 31948 ft 430 kts 302°
2026-04-26 20:13 20.90427 -68.38148 31960 ft 432 kts 302°
2026-04-26 20:13 20.94204 -68.43172 31956 ft 435 kts 302°
2026-04-26 20:14 20.98000 -68.48224 31957 ft 437 kts 302°
2026-04-26 20:14 21.01164 -68.52438 31946 ft 438 kts 302°
2026-04-26 20:15 21.05599 -68.58350 31974 ft 439 kts 302°
2026-04-26 20:15 21.09423 -68.63452 31961 ft 438 kts 302°
2026-04-26 20:16 21.13228 -68.68535 31950 ft 437 kts 301°
2026-04-26 20:16 21.16386 -68.72756 31950 ft 436 kts 301°
2026-04-26 20:17 21.20173 -68.77823 31951 ft 435 kts 301°
2026-04-26 20:17 21.24567 -68.83708 31953 ft 435 kts 301°
2026-04-26 20:18 21.27703 -68.87913 31958 ft 434 kts 302°
2026-04-26 20:18 21.31470 -68.92967 31949 ft 434 kts 301°
2026-04-26 20:19 21.35235 -68.98024 31950 ft 433 kts 301°
2026-04-26 20:19 21.38991 -69.03073 31952 ft 433 kts 301°
2026-04-26 20:20 21.42746 -69.08124 31979 ft 433 kts 301°
2026-04-26 20:20 21.46499 -69.13179 31961 ft 433 kts 301°
2026-04-26 20:21 21.50226 -69.18203 31952 ft 433 kts 301°
2026-04-26 20:21 21.53980 -69.23268 31959 ft 433 kts 301°
2026-04-26 20:22 21.57730 -69.28331 31954 ft 433 kts 301°
2026-04-26 20:22 21.61477 -69.33395 31949 ft 433 kts 301°
2026-04-26 20:23 21.65219 -69.38458 31953 ft 433 kts 301°
2026-04-26 20:23 21.68964 -69.43530 31952 ft 433 kts 301°
2026-04-26 20:24 21.72682 -69.48569 31954 ft 433 kts 301°
2026-04-26 20:24 21.76424 -69.53646 31961 ft 433 kts 301°
2026-04-26 20:25 21.80167 -69.58727 31977 ft 433 kts 302°
2026-04-26 20:25 21.83912 -69.63816 31961 ft 433 kts 301°
2026-04-26 20:26 21.87652 -69.68903 31951 ft 433 kts 301°
2026-04-26 20:26 21.91360 -69.73951 31954 ft 433 kts 301°
2026-04-26 20:27 21.95094 -69.79038 31953 ft 432 kts 301°
2026-04-26 20:27 21.98819 -69.84120 31953 ft 432 kts 301°
2026-04-26 20:28 22.02552 -69.89199 31958 ft 432 kts 302°
2026-04-26 20:28 22.06293 -69.94278 31953 ft 432 kts 302°
2026-04-26 20:29 22.10003 -69.99321 31955 ft 432 kts 302°
2026-04-26 20:29 22.13729 -70.04401 31952 ft 432 kts 302°
2026-04-26 20:30 22.17443 -70.09492 31977 ft 432 kts 302°
2026-04-26 20:30 22.21152 -70.14583 31960 ft 431 kts 302°
2026-04-26 20:31 22.24862 -70.19675 31956 ft 431 kts 302°
2026-04-26 20:31 22.28567 -70.24763 31956 ft 431 kts 302°
2026-04-26 20:32 22.32243 -70.29817 31958 ft 431 kts 302°
2026-04-26 20:32 22.35943 -70.34907 31955 ft 431 kts 302°
2026-04-26 20:33 22.39639 -70.39998 31956 ft 430 kts 302°
2026-04-26 20:33 22.43331 -70.45086 31957 ft 430 kts 302°
2026-04-26 20:34 22.47027 -70.50187 31954 ft 431 kts 302°
2026-04-26 20:34 22.50691 -70.55247 31964 ft 431 kts 302°
2026-04-26 20:35 22.54384 -70.60354 31980 ft 431 kts 302°
2026-04-26 20:35 22.58079 -70.65466 31963 ft 431 kts 302°
2026-04-26 20:36 22.61773 -70.70582 31956 ft 431 kts 302°
2026-04-26 20:36 22.65464 -70.75697 31955 ft 431 kts 302°
2026-04-26 20:37 22.69153 -70.80816 31954 ft 431 kts 302°
2026-04-26 20:37 22.72759 -70.85941 31957 ft 430 kts 301°
2026-04-26 20:38 22.76356 -70.91123 31963 ft 430 kts 301°
2026-04-26 20:38 22.79957 -70.96303 31959 ft 431 kts 301°
2026-04-26 20:39 22.83566 -71.01487 31956 ft 431 kts 301°
2026-04-26 20:39 22.87173 -71.06668 31959 ft 431 kts 301°
2026-04-26 20:40 22.90782 -71.11857 31960 ft 431 kts 301°
2026-04-26 20:40 22.94366 -71.17016 31968 ft 431 kts 301°
2026-04-26 20:41 22.97978 -71.22219 31958 ft 432 kts 301°
2026-04-26 20:41 23.01594 -71.27434 31960 ft 432 kts 301°
2026-04-26 20:42 23.05207 -71.32650 31959 ft 432 kts 301°
2026-04-26 20:42 23.08823 -71.37875 31959 ft 433 kts 301°
2026-04-26 20:43 23.12411 -71.43064 31958 ft 433 kts 301°
2026-04-26 20:43 23.16026 -71.48299 31962 ft 433 kts 301°
2026-04-26 20:44 23.19635 -71.53530 31963 ft 433 kts 301°
2026-04-26 20:44 23.23242 -71.58764 31960 ft 433 kts 301°
2026-04-26 20:45 23.26853 -71.64006 31959 ft 433 kts 301°
2026-04-26 20:45 23.30456 -71.69245 31953 ft 434 kts 301°
2026-04-26 20:46 23.34047 -71.74469 31959 ft 434 kts 301°
2026-04-26 20:46 23.37662 -71.79731 31956 ft 435 kts 301°
2026-04-26 20:47 23.41295 -71.85004 31961 ft 435 kts 301°
2026-04-26 20:47 23.44929 -71.90274 31965 ft 436 kts 301°
2026-04-26 20:48 23.48568 -71.95558 31965 ft 436 kts 301°
2026-04-26 20:48 23.52212 -72.00856 31957 ft 437 kts 301°
2026-04-26 20:49 23.55829 -72.06120 31963 ft 437 kts 301°
2026-04-26 20:49 23.59468 -72.11422 31954 ft 437 kts 301°
2026-04-26 20:50 23.63109 -72.16731 31953 ft 437 kts 301°
2026-04-26 20:50 23.66742 -72.22035 31959 ft 436 kts 301°
2026-04-26 20:51 23.70371 -72.27340 31967 ft 436 kts 301°
2026-04-26 20:51 23.73999 -72.32648 31961 ft 436 kts 301°
2026-04-26 20:52 23.77599 -72.37921 31966 ft 436 kts 301°
2026-04-26 20:52 23.81221 -72.43231 31966 ft 436 kts 301°
2026-04-26 20:53 23.84836 -72.48537 31967 ft 436 kts 301°
2026-04-26 20:53 23.88450 -72.53847 31967 ft 435 kts 301°
2026-04-26 20:54 23.92063 -72.59162 31960 ft 435 kts 301°
2026-04-26 20:54 23.95672 -72.64477 31971 ft 435 kts 301°
2026-04-26 20:55 23.99278 -72.69792 31961 ft 435 kts 301°
2026-04-26 20:55 24.02880 -72.75108 31969 ft 436 kts 301°
2026-04-26 20:56 24.06469 -72.80409 31970 ft 437 kts 301°
2026-04-26 20:56 24.10096 -72.85758 31965 ft 439 kts 302°
2026-04-26 20:57 24.13737 -72.91136 31963 ft 440 kts 301°
2026-04-26 20:57 24.17376 -72.96532 31974 ft 441 kts 302°
2026-04-26 20:58 24.21024 -73.01947 31964 ft 442 kts 302°
2026-04-26 20:58 24.24675 -73.07369 31964 ft 442 kts 302°
2026-04-26 20:59 24.28322 -73.12792 31963 ft 442 kts 302°
2026-04-26 20:59 24.31962 -73.18210 31964 ft 441 kts 302°
2026-04-26 21:00 24.35598 -73.23628 31966 ft 440 kts 302°
2026-04-26 21:00 24.39221 -73.29034 31982 ft 440 kts 302°
2026-04-26 21:01 24.42847 -73.34450 31975 ft 441 kts 302°
2026-04-26 21:01 24.46473 -73.39872 31972 ft 441 kts 302°
2026-04-26 21:02 24.50105 -73.45310 31966 ft 441 kts 302°
2026-04-26 21:02 24.53709 -73.50710 31968 ft 442 kts 302°
2026-04-26 21:03 24.57415 -73.56102 31953 ft 445 kts 308°
2026-04-26 21:03 24.61765 -73.60975 31969 ft 447 kts 311°
2026-04-26 21:04 24.66204 -73.65770 31970 ft 447 kts 311°
2026-04-26 21:04 24.70615 -73.70584 31960 ft 447 kts 311°
2026-04-26 21:05 24.74998 -73.75421 31981 ft 446 kts 310°
2026-04-26 21:05 24.79365 -73.80263 31976 ft 446 kts 310°
2026-04-26 21:06 24.83715 -73.85094 31971 ft 447 kts 310°
2026-04-26 21:06 24.88087 -73.89953 31970 ft 447 kts 310°
2026-04-26 21:07 24.92465 -73.94824 31972 ft 448 kts 310°
2026-04-26 21:07 24.96849 -73.99705 31970 ft 448 kts 310°
2026-04-26 21:08 25.01225 -74.04582 31970 ft 447 kts 311°
2026-04-26 21:08 25.05585 -74.09447 31964 ft 445 kts 311°
2026-04-26 21:09 25.09927 -74.14297 31978 ft 444 kts 311°
2026-04-26 21:09 25.14237 -74.19118 31975 ft 444 kts 311°
2026-04-26 21:10 25.18582 -74.23982 31967 ft 445 kts 311°
2026-04-26 21:10 25.22925 -74.28850 31972 ft 445 kts 311°
2026-04-26 21:11 25.27273 -74.33728 31974 ft 446 kts 311°
2026-04-26 21:11 25.31627 -74.38618 31981 ft 446 kts 311°
2026-04-26 21:12 25.35977 -74.43509 31964 ft 446 kts 311°
2026-04-26 21:12 25.40288 -74.48361 31969 ft 445 kts 311°
2026-04-26 21:13 25.44621 -74.53244 31974 ft 445 kts 311°
2026-04-26 21:13 25.48956 -74.58133 31972 ft 445 kts 311°
2026-04-26 21:14 25.53287 -74.63024 31974 ft 445 kts 311°
2026-04-26 21:14 25.57625 -74.67928 31971 ft 446 kts 311°
2026-04-26 21:15 25.61962 -74.72837 31974 ft 446 kts 311°
2026-04-26 21:15 25.66267 -74.77714 31974 ft 446 kts 311°
2026-04-26 21:16 25.70604 -74.82634 31973 ft 446 kts 311°
2026-04-26 21:16 25.74945 -74.87563 31977 ft 446 kts 311°
2026-04-26 21:17 25.79281 -74.92493 31979 ft 447 kts 312°
2026-04-26 21:17 25.83625 -74.97436 31976 ft 447 kts 312°
2026-04-26 21:18 25.87942 -75.02355 31973 ft 448 kts 312°
2026-04-26 21:18 25.92285 -75.07309 31983 ft 447 kts 313°
2026-04-26 21:19 25.96617 -75.12255 31970 ft 446 kts 313°
2026-04-26 21:19 26.00934 -75.17190 31974 ft 444 kts 313°
2026-04-26 21:20 26.05230 -75.22106 31976 ft 443 kts 313°
2026-04-26 21:20 26.09516 -75.27016 31977 ft 442 kts 313°
2026-04-26 21:21 26.13764 -75.31889 31981 ft 441 kts 313°
2026-04-26 21:21 26.18034 -75.36792 31979 ft 441 kts 313°
2026-04-26 21:22 26.22311 -75.41710 31975 ft 442 kts 313°
2026-04-26 21:22 26.26581 -75.46624 31975 ft 441 kts 313°
2026-04-26 21:23 26.32966 -75.53982 31974 ft 440 kts 313°
2026-04-26 21:23 26.37212 -75.58883 31977 ft 439 kts 313°
2026-04-26 21:24 26.41446 -75.63775 31978 ft 438 kts 313°
2026-04-26 21:24 26.45648 -75.68635 31986 ft 438 kts 313°
2026-04-26 21:25 26.49869 -75.73524 31978 ft 437 kts 313°
2026-04-26 21:25 26.54089 -75.78416 31972 ft 437 kts 313°
2026-04-26 21:26 26.58305 -75.83308 31970 ft 436 kts 314°
2026-04-26 21:26 26.62475 -75.88154 31972 ft 435 kts 314°
2026-04-26 21:27 26.66663 -75.93027 31977 ft 434 kts 314°
2026-04-26 21:27 26.70841 -75.97892 31977 ft 434 kts 314°
2026-04-26 21:28 26.75016 -76.02761 31978 ft 433 kts 314°
2026-04-26 21:28 26.79182 -76.07623 31990 ft 433 kts 314°
2026-04-26 21:29 26.83349 -76.12492 31978 ft 433 kts 314°
2026-04-26 21:29 26.87505 -76.17356 31975 ft 431 kts 314°
2026-04-26 21:30 26.91617 -76.22171 31971 ft 430 kts 314°
2026-04-26 21:30 26.95077 -76.26229 31974 ft 429 kts 314°
2026-04-26 21:31 26.99863 -76.31847 31975 ft 428 kts 314°
2026-04-26 21:31 27.03970 -76.36674 31975 ft 428 kts 314°
2026-04-26 21:32 27.08081 -76.41488 31977 ft 427 kts 315°
2026-04-26 21:32 27.12232 -76.46255 31977 ft 427 kts 315°
2026-04-26 21:33 27.16361 -76.50987 31965 ft 427 kts 315°
2026-04-26 21:33 27.20494 -76.55740 31969 ft 424 kts 315°
2026-04-26 21:34 27.24604 -76.60480 31973 ft 423 kts 315°
2026-04-26 21:34 27.28701 -76.65210 31977 ft 422 kts 315°
2026-04-26 21:35 27.32791 -76.69939 31973 ft 421 kts 315°
2026-04-26 21:35 27.36872 -76.74662 31978 ft 421 kts 315°
2026-04-26 21:36 27.40259 -76.78586 31980 ft 420 kts 315°
2026-04-26 21:36 27.44990 -76.84074 31980 ft 421 kts 315°
2026-04-26 21:37 27.49065 -76.88806 31977 ft 420 kts 314°
2026-04-26 21:37 27.53133 -76.93535 31971 ft 420 kts 314°
2026-04-26 21:38 27.57190 -76.98257 31971 ft 420 kts 314°
2026-04-26 21:38 27.61250 -77.02988 31971 ft 419 kts 314°
2026-04-26 21:39 27.65279 -77.07688 31975 ft 419 kts 314°
2026-04-26 21:39 27.69329 -77.12419 31974 ft 419 kts 314°
2026-04-26 21:40 27.73381 -77.17156 31970 ft 419 kts 314°
2026-04-26 21:40 27.76750 -77.21100 31973 ft 419 kts 314°
2026-04-26 21:41 27.80797 -77.25842 31969 ft 419 kts 313°
2026-04-26 21:41 27.84841 -77.30585 31967 ft 419 kts 313°
2026-04-26 21:42 27.88884 -77.35334 31971 ft 419 kts 313°
2026-04-26 21:42 27.92918 -77.40076 31963 ft 419 kts 313°
2026-04-26 21:43 27.96950 -77.44823 31969 ft 418 kts 313°
2026-04-26 21:43 28.00984 -77.49577 31969 ft 418 kts 313°
2026-04-26 21:44 28.05013 -77.54332 31968 ft 418 kts 313°
2026-04-26 21:44 28.09016 -77.59053 31966 ft 419 kts 314°
2026-04-26 21:45 28.13727 -77.62943 31970 ft 423 kts 328°
2026-04-26 21:45 28.19218 -77.65429 31975 ft 429 kts 340°
2026-04-26 21:46 28.24999 -77.67164 31968 ft 430 kts 341°
2026-04-26 21:46 28.30796 -77.68883 31960 ft 430 kts 341°
2026-04-26 21:47 28.36582 -77.70630 31964 ft 430 kts 341°
2026-04-26 21:47 28.42363 -77.72395 31978 ft 430 kts 341°
2026-04-26 21:48 28.48143 -77.74168 31962 ft 430 kts 340°
2026-04-26 21:48 28.53882 -77.75931 31965 ft 430 kts 340°
2026-04-26 21:49 28.56778 -77.76821 32066 ft 432 kts 340°
2026-04-26 21:49 28.59714 -77.77724 32339 ft 430 kts 341°
2026-04-26 21:49 28.62515 -77.78585 32665 ft 427 kts 340°
2026-04-26 21:49 28.65413 -77.79475 32978 ft 424 kts 340°
2026-04-26 21:50 28.71130 -77.81237 32967 ft 425 kts 340°
2026-04-26 21:50 28.76815 -77.82990 32957 ft 422 kts 340°
2026-04-26 21:51 28.82476 -77.84738 32964 ft 421 kts 340°
2026-04-26 21:51 28.88080 -77.86471 32961 ft 420 kts 340°
2026-04-26 21:52 28.93711 -77.88213 32960 ft 419 kts 340°
2026-04-26 21:52 28.99348 -77.89960 32990 ft 420 kts 340°
2026-04-26 21:53 29.04991 -77.91711 32971 ft 421 kts 340°
2026-04-26 21:53 29.10657 -77.93471 32959 ft 422 kts 340°
2026-04-26 21:54 29.16328 -77.95233 32959 ft 423 kts 340°
2026-04-26 21:54 29.22016 -77.97003 32952 ft 423 kts 340°
2026-04-26 21:55 29.27663 -77.98762 32953 ft 424 kts 340°
2026-04-26 21:55 29.33356 -78.00538 32958 ft 424 kts 340°
2026-04-26 21:56 29.39049 -78.02316 32952 ft 424 kts 340°
2026-04-26 21:56 29.44747 -78.04097 32954 ft 424 kts 340°
2026-04-26 21:57 29.50442 -78.05879 32955 ft 424 kts 340°
2026-04-26 21:57 29.56130 -78.07662 32950 ft 424 kts 340°
2026-04-26 21:58 29.61785 -78.09436 32954 ft 424 kts 340°
2026-04-26 21:58 29.67476 -78.11224 32948 ft 424 kts 340°
2026-04-26 21:59 29.73162 -78.13012 32949 ft 424 kts 340°
2026-04-26 21:59 29.78852 -78.14804 32948 ft 424 kts 340°
2026-04-26 22:00 29.84530 -78.16593 32950 ft 423 kts 340°
2026-04-26 22:00 29.90179 -78.18377 32956 ft 424 kts 340°
2026-04-26 22:01 29.95868 -78.20174 32951 ft 424 kts 340°
2026-04-26 22:01 30.01558 -78.21974 32948 ft 424 kts 340°
2026-04-26 22:02 30.07252 -78.23777 32948 ft 424 kts 340°
2026-04-26 22:02 30.12909 -78.25571 32946 ft 424 kts 340°
2026-04-26 22:03 30.18602 -78.27379 32944 ft 424 kts 340°
2026-04-26 22:03 30.24298 -78.29189 32945 ft 424 kts 340°
2026-04-26 22:04 30.29987 -78.31000 32946 ft 424 kts 340°
2026-04-26 22:04 30.35682 -78.32815 32945 ft 424 kts 340°
2026-04-26 22:05 30.41463 -78.34094 32959 ft 431 kts 352°
2026-04-26 22:05 30.47513 -78.33622 32948 ft 443 kts
2026-04-26 22:06 30.53559 -78.32182 32949 ft 444 kts
2026-04-26 22:06 30.59617 -78.30721 32939 ft 445 kts
2026-04-26 22:07 30.65686 -78.29296 32948 ft 445 kts
2026-04-26 22:07 30.71716 -78.27896 32970 ft 445 kts
2026-04-26 22:08 30.77811 -78.26481 32954 ft 448 kts
2026-04-26 22:08 30.83939 -78.25055 32951 ft 450 kts
2026-04-26 22:09 30.90092 -78.23620 32951 ft 452 kts
2026-04-26 22:09 30.96276 -78.22189 32948 ft 453 kts
2026-04-26 22:10 31.02439 -78.20821 32948 ft 455 kts
2026-04-26 22:10 31.08670 -78.19443 32947 ft 456 kts
2026-04-26 22:11 31.14907 -78.18054 32943 ft 456 kts
2026-04-26 22:11 31.21147 -78.16658 32939 ft 456 kts
2026-04-26 22:12 31.27337 -78.15270 32951 ft 456 kts
2026-04-26 22:12 31.33558 -78.13876 32937 ft 455 kts
2026-04-26 22:13 31.39772 -78.12481 32937 ft 454 kts
2026-04-26 22:13 31.45980 -78.11598 32946 ft 444 kts 354°
2026-04-26 22:14 31.52105 -78.11586 32972 ft 443 kts 353°
2026-04-26 22:14 31.58275 -78.11591 32949 ft 443 kts 353°
2026-04-26 22:15 31.64440 -78.11545 32937 ft 443 kts 353°
2026-04-26 22:15 31.70608 -78.11474 32940 ft 443 kts 353°
2026-04-26 22:16 31.76735 -78.11398 32942 ft 443 kts 353°
2026-04-26 22:16 31.82901 -78.11324 32945 ft 444 kts 354°
2026-04-26 22:17 31.89083 -78.11250 32953 ft 445 kts 354°
2026-04-26 22:17 31.95291 -78.11176 32950 ft 447 kts 354°
2026-04-26 22:18 32.01527 -78.11102 32948 ft 449 kts 354°
2026-04-26 22:18 32.07740 -78.11027 32967 ft 451 kts 355°
2026-04-26 22:19 32.14032 -78.10951 32956 ft 453 kts 355°
2026-04-26 22:19 32.20344 -78.10980 32929 ft 450 kts 346°
2026-04-26 22:20 32.23287 -78.11997 32977 ft 436 kts 329°
2026-04-26 22:20 32.25812 -78.13916 32946 ft 429 kts 315°
2026-04-26 22:20 32.29417 -78.19383 32970 ft 422 kts 292°
2026-04-26 22:21 32.31489 -78.25828 32958 ft 423 kts 289°
2026-04-26 22:21 32.33539 -78.32364 32958 ft 424 kts 290°
2026-04-26 22:22 32.35663 -78.38873 32977 ft 424 kts 290°
2026-04-26 22:22 32.37788 -78.45372 32967 ft 423 kts 290°
2026-04-26 22:23 32.39887 -78.51815 32955 ft 422 kts 290°
2026-04-26 22:23 32.41989 -78.58284 32959 ft 421 kts 290°
2026-04-26 22:24 32.44083 -78.64742 32960 ft 420 kts 290°
2026-04-26 22:24 32.46168 -78.71187 32967 ft 419 kts 290°
2026-04-26 22:25 32.48249 -78.77631 32965 ft 419 kts 290°
2026-04-26 22:25 32.50310 -78.84026 32967 ft 418 kts 290°
2026-04-26 22:26 32.52383 -78.90454 32965 ft 418 kts 290°
2026-04-26 22:26 32.54454 -78.96882 32965 ft 417 kts 290°
2026-04-26 22:27 32.56521 -79.03315 32971 ft 417 kts 290°
2026-04-26 22:27 32.58583 -79.09745 32982 ft 417 kts 291°
2026-04-26 22:28 32.60627 -79.16130 32970 ft 417 kts 291°
2026-04-26 22:28 32.62677 -79.22550 32970 ft 416 kts 291°
2026-04-26 22:29 32.64724 -79.28974 32973 ft 416 kts 290°
2026-04-26 22:29 32.66765 -79.35393 32972 ft 416 kts 290°
2026-04-26 22:30 32.68789 -79.41769 32974 ft 416 kts 290°
2026-04-26 22:30 32.70823 -79.48189 32971 ft 415 kts 291°
2026-04-26 22:31 32.72033 -79.51293 32987 ft 416 kts 303°
2026-04-26 22:31 32.73935 -79.53877 32986 ft 419 kts 316°
2026-04-26 22:31 32.76335 -79.55882 32981 ft 425 kts 327°
2026-04-26 22:31 32.79049 -79.57315 32969 ft 432 kts 339°
2026-04-26 22:32 32.82036 -79.57938 32983 ft 440 kts 350°
2026-04-26 22:32 32.85109 -79.58156 32976 ft 443 kts 352°
2026-04-26 22:32 32.91235 -79.58399 32975 ft 444 kts 352°
2026-04-26 22:33 33.00491 -79.58800 32977 ft 444 kts 352°
2026-04-26 22:34 33.06661 -79.59129 32985 ft 444 kts 352°
2026-04-26 22:34 33.12835 -79.59473 32990 ft 444 kts 352°
2026-04-26 22:35 33.18971 -79.59818 32995 ft 444 kts 352°
2026-04-26 22:35 33.25146 -79.60163 33017 ft 444 kts 351°
2026-04-26 22:36 33.31313 -79.60506 32995 ft 443 kts 351°
2026-04-26 22:36 33.37467 -79.60850 32981 ft 442 kts 351°
2026-04-26 22:37 33.43588 -79.61192 32995 ft 440 kts 351°
2026-04-26 22:37 33.49702 -79.61534 33009 ft 439 kts 351°
2026-04-26 22:38 33.55798 -79.61877 33003 ft 439 kts 351°
2026-04-26 22:38 33.61844 -79.62217 33008 ft 438 kts 351°
2026-04-26 22:39 33.67923 -79.62559 33015 ft 437 kts 351°
2026-04-26 22:39 33.73997 -79.62902 33012 ft 437 kts 351°
2026-04-26 22:40 33.80038 -79.63243 33038 ft 438 kts 351°
2026-04-26 22:40 33.86172 -79.63591 33022 ft 439 kts 351°
2026-04-26 22:41 33.92239 -79.63934 33028 ft 440 kts 352°
2026-04-26 22:41 33.98356 -79.64281 33032 ft 440 kts 352°
2026-04-26 22:42 34.04477 -79.64628 33069 ft 441 kts 352°
2026-04-26 22:42 34.10598 -79.64978 32504 ft 449 kts 352°
2026-04-26 22:42 34.13716 -79.65155 31872 ft 448 kts 352°
2026-04-26 22:43 34.16834 -79.65332 31128 ft 449 kts 352°
2026-04-26 22:43 34.19940 -79.65625 30360 ft 446 kts 344°
2026-04-26 22:43 34.22820 -79.66863 29517 ft 438 kts 329°
2026-04-26 22:43 34.25348 -79.68866 28600 ft 434 kts 316°
2026-04-26 22:44 34.27428 -79.71498 27747 ft 432 kts 308°
2026-04-26 22:44 34.29316 -79.74340 26825 ft 435 kts 307°
2026-04-26 22:44 34.31191 -79.77223 25899 ft 438 kts 307°
2026-04-26 22:44 34.33099 -79.80110 25182 ft 437 kts 308°
2026-04-26 22:45 34.35012 -79.82951 24519 ft 434 kts 308°
2026-04-26 22:45 34.36900 -79.85723 23868 ft 432 kts 310°
2026-04-26 22:45 34.39021 -79.88300 23145 ft 431 kts 317°
2026-04-26 22:45 34.41302 -79.90633 22451 ft 428 kts 319°
2026-04-26 22:46 34.43593 -79.92916 21776 ft 426 kts 320°
2026-04-26 22:46 34.45866 -79.95197 21090 ft 424 kts 319°
2026-04-26 22:46 34.48119 -79.97491 20436 ft 422 kts 319°
2026-04-26 22:46 34.50352 -79.99796 19798 ft 420 kts 319°
2026-04-26 22:47 34.52566 -80.02100 19133 ft 419 kts 319°
2026-04-26 22:47 34.54737 -80.04370 18509 ft 417 kts 319°
2026-04-26 22:47 34.56933 -80.06669 17797 ft 416 kts 320°
2026-04-26 22:47 34.59114 -80.08954 17117 ft 414 kts 320°
2026-04-26 22:48 34.61289 -80.11232 16467 ft 412 kts 321°
2026-04-26 22:48 34.63458 -80.13503 15751 ft 412 kts 321°
2026-04-26 22:48 34.65618 -80.15765 15117 ft 409 kts 321°
2026-04-26 22:48 34.67921 -80.17708 14800 ft 397 kts 333°
2026-04-26 22:49 34.70337 -80.19267 14533 ft 389 kts 335°
2026-04-26 22:49 34.72758 -80.20770 14312 ft 396 kts 335°
2026-04-26 22:49 34.75227 -80.22308 14035 ft 399 kts 335°
2026-04-26 22:49 34.77678 -80.23860 13634 ft 396 kts 334°
2026-04-26 22:50 34.80102 -80.25417 13223 ft 390 kts 334°
2026-04-26 22:50 34.82450 -80.26942 12798 ft 386 kts 334°
2026-04-26 22:50 34.84799 -80.28476 12367 ft 381 kts 334°
2026-04-26 22:50 34.87116 -80.29993 11927 ft 375 kts 334°
2026-04-26 22:51 34.89378 -80.31477 11496 ft 363 kts 334°
2026-04-26 22:51 34.91565 -80.32913 11077 ft 350 kts 334°
2026-04-26 22:51 34.93672 -80.34295 10659 ft 339 kts 334°
2026-04-26 22:51 34.95711 -80.35633 10404 ft 325 kts 334°
2026-04-26 22:52 34.97644 -80.36902 10296 ft 306 kts 334°
2026-04-26 22:52 34.99463 -80.38096 10235 ft 288 kts 334°
2026-04-26 22:52 35.01189 -80.39231 10041 ft 277 kts 334°
2026-04-26 22:52 35.02857 -80.40325 9674 ft 274 kts 334°
2026-04-26 22:53 35.04518 -80.41416 9338 ft 268 kts 335°
2026-04-26 22:53 35.06207 -80.42303 9007 ft 262 kts 346°
2026-04-26 22:53 35.07959 -80.42854 8643 ft 259 kts 348°
2026-04-26 22:53 35.09714 -80.43336 8241 ft 259 kts 349°
2026-04-26 22:54 35.11486 -80.43820 7735 ft 262 kts 348°
2026-04-26 22:54 35.13274 -80.44258 7260 ft 262 kts 347°
2026-04-26 22:54 35.14987 -80.45044 6797 ft 263 kts 338°
2026-04-26 22:54 35.16631 -80.45979 6459 ft 259 kts 337°
2026-04-26 22:55 35.18244 -80.46921 6077 ft 255 kts 337°
2026-04-26 22:55 35.19830 -80.47858 5702 ft 252 kts 336°
2026-04-26 22:55 35.21374 -80.48772 5353 ft 246 kts 337°
2026-04-26 22:55 35.22887 -80.49674 4988 ft 239 kts 336°
2026-04-26 22:56 35.24360 -80.50556 4599 ft 233 kts 337°
2026-04-26 22:56 35.25797 -80.51426 4196 ft 228 kts 337°
2026-04-26 22:56 35.27201 -80.52298 3822 ft 225 kts 335°
2026-04-26 22:56 35.28417 -80.53512 3435 ft 232 kts 311°
2026-04-26 22:57 35.29077 -80.55337 3086 ft 241 kts 279°
2026-04-26 22:57 35.29279 -80.57365 3084 ft 240 kts 283°
2026-04-26 22:57 35.29521 -80.59368 2877 ft 242 kts 278°
2026-04-26 22:57 35.29688 -80.61373 2659 ft 230 kts 276°
2026-04-26 22:58 35.29847 -80.63253 2656 ft 210 kts 277°
2026-04-26 22:58 35.30000 -80.64963 2656 ft 203 kts 278°
2026-04-26 22:58 35.30158 -80.66688 2666 ft 204 kts 278°
2026-04-26 22:58 35.30318 -80.68409 2624 ft 203 kts 278°
2026-04-26 22:59 35.30477 -80.70094 2387 ft 193 kts 279°
2026-04-26 22:59 35.30986 -80.71484 2173 ft 168 kts 321°
2026-04-26 22:59 35.31951 -80.72120 2013 ft 149 kts 350°
2026-04-26 22:59 35.32952 -80.72173 1788 ft 146 kts 17°
2026-04-26 23:00 35.33963 -80.71942 1551 ft 149 kts 15°
2026-04-26 23:00 35.34974 -80.71727 1340 ft 145 kts 13°
2026-04-26 23:00 35.35977 -80.71512 1120 ft 148 kts 11°
2026-04-26 23:00 35.36985 -80.71313 885 ft 147 kts 10°
2026-04-26 23:01 35.37988 -80.71096 683 ft 147 kts 12°
2026-04-26 23:01 35.38881 -80.70891 668 ft 103 kts 11°
2026-04-26 23:01 35.39257 -80.70833 667 ft 24 kts 313°
2026-04-26 23:01 35.39261 -80.70936 667 ft 10 kts 218°
2026-04-26 23:02 35.39191 -80.70957 669 ft 11 kts 190°
2026-04-26 23:02 35.39108 -80.70974 669 ft 13 kts 191°
2026-04-26 23:02 35.39005 -80.70999 667 ft 16 kts 190°
2026-04-26 23:02 35.38885 -80.71024 667 ft 18 kts 190°
2026-04-26 23:03 35.38751 -80.71056 666 ft 21 kts 191°
2026-04-26 23:03 35.38607 -80.71089 667 ft 21 kts 190°
2026-04-26 23:03 35.38466 -80.71120 668 ft 21 kts 191°
2026-04-26 23:03 35.38315 -80.71153 667 ft 23 kts 190°
2026-04-26 23:04 35.38163 -80.71191 670 ft 22 kts 189°
2026-04-26 23:04 35.38019 -80.71222 667 ft 18 kts 190°
2026-04-26 23:04 35.37961 -80.71238 666 ft 6 kts 207°
2026-04-26 23:04 35.37953 -80.71290 666 ft 7 kts 279°
2026-04-26 23:05 35.37979 -80.71324 666 ft 3 kts 324°
2026-04-26 23:05 35.37989 -80.71333 666 ft 1 kts 326°
2026-04-26 23:05 35.37990 -80.71334 666 ft 0 kts 326°